Regional Weather Roundup
Issued by NWS Cleveland, OH

Home | Current Version | Previous Version | Text Only | Print | Product List | Glossary Off
Versions: 1 2 3 4 5 6 7 8 9 10 11 12 13 14 15 16 17 18 19 20 21 22 23 24 25 26 27 28 29 30 31 32 33 34 35 36 37 38 39 40 41 42 43 44 45 46 47 48 49 50

000
ASUS41 KCLE 152302
RWRCLE
OHIO REGIONAL WEATHER ROUNDUP
NATIONAL WEATHER SERVICE CLEVELAND, OH
700 PM EDT MON SEP 15 2014

NOTE: "FAIR" INDICATES FEW OR NO CLOUDS BELOW 12,000 FEET WITH NO
SIGNIFICANT WEATHER AND/OR OBSTRUCTIONS TO VISIBILITY.

OHZ001>008-015>018-024>027-034-035-043-044-160000-
   NORTHWEST OHIO

CITY           SKY/WX    TMP DP  RH WIND       PRES   REMARKS
DEFIANCE       LGT RAIN  57  52  83 NW6       30.10R
FINDLAY        LGT RAIN  60  55  83 W5        30.08R
TOLEDO EXPRESS HVY RAIN  55  52  89 NW13      30.09R FOG
TOLEDO EXEC    CLOUDY    60  51  72 NW7       30.08S
LIMA           CLOUDY    60  56  86 N3        30.08R
$$

OHZ009>014-019>023-028>033-038-089-160000-
   NORTHEAST OHIO

CITY           SKY/WX    TMP DP  RH WIND       PRES   REMARKS
CLE-HOPKINS    CLOUDY    60  52  74 CALM      30.09S
CLE-LAKEFRONT  CLOUDY    61  53  75 S3        30.05S
CUY CO. ARPT   CLOUDY    59  59 100 SE5       30.07F
LORAIN-ELYRIA  CLOUDY    62  55  77 CALM      30.08F
ASHTABULA      CLOUDY    59  56  89 SE3       30.08F
AKRON-CANTON   CLOUDY    64  49  57 SW3       30.07F
WOOSTER        CLOUDY    61  54  77 N7        30.07S
MANSFIELD      CLOUDY    59  55  87 N3        30.07S
YOUNGSTOWN     CLOUDY    62  53  72 CALM      30.08F
$$

OHZ042-051>053-060>062-070>072-077>081-160000-
  SOUTHWEST OHIO

CITY           SKY/WX    TMP DP  RH WIND       PRES   REMARKS
CINC-COVINGTON CLOUDY    60  53  77 S6        30.08R
CINC-LUNKEN    CLOUDY    61  53  75 SW7       30.07F
HAMILTON       CLOUDY    62  57  83 VRB3      30.09R
DAYTON         CLOUDY    61  56  83 W10       30.10R
WRIGHT-PAT AFB CLEAR     63  55  75 W10       30.08R
DAYTON GENERAL CLOUDY    62  54  74 W8        30.07R
WILMINGTON     CLOUDY    62  55  77 S10G20    30.02F
$$

OHZ036-037-039>041-045>050-054>059-063>069-073>076-082>088-160000-
  CENTRAL AND SOUTHEAST OHIO

CITY           SKY/WX    TMP DP  RH WIND       PRES   REMARKS
COLUMBUS       LGT RAIN  69  50  50 S8G18     30.04F
OSU AIRPORT    CLOUDY    67  48  50 SW7G20    30.02F
BOLTON FIELD   PTCLDY    64  54  68 S6        30.03F
RICKENBACK AFB LGT RAIN  66  50  56 S16G29    29.98F
NEWARK         CLOUDY    66  49  54 S9        30.03F
MARION         CLOUDY    62  57  83 N8        30.05R
LANCASTER      CLOUDY    68  50  52 S8        30.07F
ZANESVILLE     CLOUDY    67  52  58 S5        30.08F
NEW PHILLY     CLOUDY    63  53  70 S5        30.07F
$$


USA.gov is the U.S. government's official web portal to all federal, state and local government web resources and services.